[TLELIST] Archives

 

[list_settings.list_name] Current TLEs

May 19th 2011 PST

HST 1 20580U 90037B 11138.47037934 .00000926 00000-0 57427-4 0 7674 2 20580 028.4697 210.5697 0003782 166.1084 193.9499 15.01357299955183 ISS (ZARYA) 1 25544U 98067A 11139.51851618 -.00006117 00000-0 -35679-4 0 3849 2 25544 051.6458 307.8947 0003652 293.3715 109.8386 15.75218511716392 CXO 1 25867U 99040B 11139.87500000 -.00000293 00000-0 00000+0 0 6075 2 25867 069.1769 033.5871 8595057 276.5256 356.0539 00.37805930 7662 ____________________________________________________________________ These 2-Line ...Continue Reading

[list_settings.list_name] Current TLEs

May 18th 2011 PST

HST 1 20580U 90037B 11138.47037934 .00000926 00000-0 57427-4 0 7674 2 20580 028.4697 210.5697 0003782 166.1084 193.9499 15.01357299955183 ISS (ZARYA) 1 25544U 98067A 11138.23783565 .00041748 00000-0 27581-3 0 3740 2 25544 051.6463 314.4791 0002676 284.5642 051.3888 15.75144628716187 CXO 1 25867U 99040B 11139.87500000 -.00000293 00000-0 00000+0 0 6075 2 25867 069.1769 033.5871 8595057 276.5256 356.0539 00.37805930 7662 ____________________________________________________________________ These 2-Line ...Continue Reading

[list_settings.list_name] Current TLEs

May 17th 2011 PST

HST 1 20580U 90037B 11135.67840564 .00001068 00000-0 68191-4 0 7661 2 20580 028.4698 228.8055 0003652 137.1746 222.9108 15.01353873954760 ISS (ZARYA) 1 25544U 98067A 11136.99747483 .00021224 00000-0 14315-3 0 3681 2 25544 051.6484 320.8582 0002600 282.7050 215.1950 15.75059336715998 CXO 1 25867U 99040B 11137.25000000 -.00000293 00000-0 00000+0 0 6069 2 25867 069.1591 033.7689 8591184 276.4900 358.7991 00.37809361 7658 ____________________________________________________________________ These 2-Line ...Continue Reading

[list_settings.list_name] Current TLEs

May 16th 2011 PST

HST 1 20580U 90037B 11135.67840564 .00001068 00000-0 68191-4 0 7661 2 20580 028.4698 228.8055 0003652 137.1746 222.9108 15.01353873954760 ISS (ZARYA) 1 25544U 98067A 11136.48289737 .00020597 00000-0 13920-3 0 3647 2 25544 051.6484 323.5050 0002583 279.2411 178.9383 15.75034107715917 CXO 1 25867U 99040B 11137.25000000 -.00000293 00000-0 00000+0 0 6069 2 25867 069.1591 033.7689 8591184 276.4900 358.7991 00.37809361 7658 ____________________________________________________________________ These 2-Line ...Continue Reading

[list_settings.list_name] Current TLEs

May 15th 2011 PST

HST 1 20580U 90037B 11134.68127036 .00001170 00000-0 75935-4 0 7650 2 20580 028.4700 235.3178 0003423 124.5290 235.5635 15.01352690954618 ISS (ZARYA) 1 25544U 98067A 11135.32133102 .00020975 00000-0 14196-3 0 3593 2 25544 051.6489 329.4775 0002595 274.1466 073.4735 15.74986327715726 CXO 1 25867U 99040B 11137.25000000 -.00000293 00000-0 00000+0 0 6069 2 25867 069.1591 033.7689 8591184 276.4900 358.7991 00.37809361 7658 ____________________________________________________________________ These 2-Line ...Continue Reading

[list_settings.list_name] Current TLEs

May 14th 2011 PST

HST 1 20580U 90037B 11133.68413250 .00001223 00000-0 79991-4 0 7649 2 20580 028.4699 241.8342 0003494 113.5369 246.5525 15.01351127954460 ISS (ZARYA) 1 25544U 98067A 11134.44803269 .00024567 00000-0 16567-3 0 3543 2 25544 051.6486 333.9659 0002443 270.2519 162.5555 15.74960631715597 CXO 1 25867U 99040B 11134.58333333 -.00000028 00000-0 00000+0 0 6055 2 25867 069.1388 033.9425 8584820 276.4746 355.8214 00.37806204 7647 ____________________________________________________________________ These 2-Line ...Continue Reading

[list_settings.list_name] Current TLEs

May 13th 2011 PST

HST 1 20580U 90037B 11131.68985533 .00001322 00000-0 87520-4 0 7631 2 20580 028.4700 254.8583 0003590 090.6325 269.4677 15.01347649954161 ISS (ZARYA) 1 25544U 98067A 11133.49894455 .00025018 00000-0 16895-3 0 3472 2 25544 051.6481 338.8480 0002441 268.8530 179.2266 15.74916834715446 CXO 1 25867U 99040B 11134.58333333 -.00000028 00000-0 00000+0 0 6055 2 25867 069.1388 033.9425 8584820 276.4746 355.8214 00.37806204 7647 ____________________________________________________________________ These 2-Line ...Continue Reading

[list_settings.list_name] Current TLEs

May 12th 2011 PST

HST 1 20580U 90037B 11131.68985533 .00001322 00000-0 87520-4 0 7631 2 20580 028.4700 254.8583 0003590 090.6325 269.4677 15.01347649954161 ISS (ZARYA) 1 25544U 98067A 11132.41524060 .00026803 00000-0 18107-3 0 3409 2 25544 051.6479 344.4176 0002461 257.2170 162.5587 15.74865275715276 CXO 1 25867U 99040B 11131.95833333 .00000217 00000-0 00000+0 0 6046 2 25867 069.1137 034.0938 8580934 276.4832 358.4243 00.37806260 7630 ____________________________________________________________________ These 2-Line ...Continue Reading

[list_settings.list_name] Current TLEs

May 11th 2011 PST

HST 1 20580U 90037B 11130.69271401 .00001345 00000-0 89279-4 0 7620 2 20580 028.4700 261.3714 0003581 079.0912 281.0072 15.01345527954019 ISS (ZARYA) 1 25544U 98067A 11131.32321759 .00049424 00000-0 32999-3 0 3351 2 25544 051.6464 350.0361 0002279 260.7855 083.7013 15.74826825715091 CXO 1 25867U 99040B 11131.95833333 .00000217 00000-0 00000+0 0 6046 2 25867 069.1137 034.0938 8580934 276.4832 358.4243 00.37806260 7630 ____________________________________________________________________ These 2-Line ...Continue Reading

[list_settings.list_name] Current TLEs

May 10th 2011 PST

HST 1 20580U 90037B 11129.56261560 .00001197 00000-0 78000-4 0 7613 2 20580 028.4704 268.7374 0003842 064.5560 295.5312 15.01342174953846 ISS (ZARYA) 1 25544U 98067A 11130.43756249 .00027896 00000-0 18511-3 0 3306 2 25544 051.6463 354.5869 0002597 246.3164 113.8087 15.74758451119125 CXO 1 25867U 99040B 11131.95833333 .00000217 00000-0 00000+0 0 6046 2 25867 069.1137 034.0938 8580934 276.4832 358.4243 00.37806260 7630 ____________________________________________________________________ These 2-Line ...Continue Reading
  • This mailing list is a public mailing list - anyone may join or leave, at any time.
  • This mailing list is announce-only.

International Space Station (ISS) / Hubble Space Telescope (HST) / Chandra X-Ray Observatory Orbital Data via EMAIL

Privacy Policy:

Private list